This is the latest recevied weather packets stored in our database for station/object KM4CNW. If no packets are shown the sender has not sent any weather packets the latest 10 day(s).
| Time | Temp. | Humidity | Pressure | Rain* | Wind** | Luminosity | Snow |
|---|---|---|---|---|---|---|---|
| 1778065803 | 16.67° C | 73% | 1007.7 hPa | 0 mm | - | 29 W/m² | - |
| 1778065501 | 16.67° C | 74% | 1007.7 hPa | 0 mm | - | 27 W/m² | - |
| 1778065197 | 16.67° C | 74% | 1007.6 hPa | 0 mm | - | 22 W/m² | - |
| 1778064894 | 16.67° C | 74% | 1007.7 hPa | 0 mm | - | 21 W/m² | - |
| 1778064591 | 16.11° C | 74% | 1007.3 hPa | 0 mm | - | 19 W/m² | - |
| 1778064289 | 16.11° C | 74% | 1007.3 hPa | 0 mm | - | 13 W/m² | - |
| 1778063987 | 16.11° C | 74% | 1007.4 hPa | 0 mm | - | 9 W/m² | - |
| 1778063684 | 16.11° C | 75% | 1007.3 hPa | 0 mm | - | 4 W/m² | - |
| 1778063381 | 16.11° C | 75% | 1007 hPa | 0 mm | - | 2 W/m² | - |
| 1778063079 | 16.11° C | 75% | 1007.2 hPa | 0 mm | - | 1 W/m² | - |
| 1778062776 | 16.11° C | 75% | 1007.2 hPa | 0 mm | - | 1 W/m² | - |
| 1778062472 | 16.11° C | 75% | 1007.3 hPa | 0 mm | - | 0 W/m² | - |
| 1778062170 | 16.11° C | 75% | 1007.5 hPa | 0 mm | - | 0 W/m² | - |
| 1778061868 | 16.11° C | 75% | 1007.4 hPa | 0 mm | - | 0 W/m² | - |
| 1778061565 | 16.11° C | 74% | 1007.4 hPa | 0 mm | - | 0 W/m² | - |
| 1778061264 | 16.67° C | 74% | 1007.2 hPa | 0 mm | - | 0 W/m² | - |
| 1778060959 | 16.67° C | 74% | 1007.2 hPa | 0 mm | - | 0 W/m² | - |
| 1778060658 | 16.67° C | 74% | 1007 hPa | 0 mm | - | 0 W/m² | - |
| 1778060356 | 16.67° C | 73% | 1007.4 hPa | 0 mm | - | 0 W/m² | - |
| 1778060053 | 16.67° C | 73% | 1007.4 hPa | 0 mm | - | 0 W/m² | - |
| 1778059751 | 16.67° C | 73% | 1007.4 hPa | 0 mm | - | 0 W/m² | - |
| 1778059449 | 16.67° C | 73% | 1007.4 hPa | 0 mm | - | 0 W/m² | - |
| 1778059145 | 16.67° C | 73% | 1007.6 hPa | 0 mm | - | 0 W/m² | - |
| 1778058843 | 16.67° C | 72% | 1007.3 hPa | 0 mm | - | 0 W/m² | - |
| 1778058540 | 16.67° C | 72% | 1007.7 hPa | 0 mm | - | 0 W/m² | - |
* Rain latest hour (hover to see other rain measurements)
** Current wind speed in m/s (hover to see current wind gust speed)